QPF
0.00 0.00 0.00 0.00 0.00 0.00 0.00 0.00 0.00 0.00 0.00 0.00 0.00 0.00 0.00 0.00 0.00 0.00 0.00 0.00 0.00 0.00 0.00 0.00 0.00 0.00 0.00 0.00 0.00 0.00 0.00 0.00 0.00 0.00 0.00 0.00 0.00 0.00 0.00 0.00 0.00 0.00 0.00
0.00 0.00 0.00 0.00 0.00 0.00 0.00 0.00 0.00 0.00 0.00 0.00 0.00 0.00 0.00 0.00 0.00 0.00 0.00 0.00 0.00 0.00 0.00 0.00 0.00 0.00 0.00 0.00 0.00 0.00 0.00 0.00 0.00 0.00 0.00 0.00 0.00 0.00 0.00 0.00 0.00 0.01 0.01
0.00 0.00 0.00 0.00 0.00 0.00 0.00 0.00 0.00 0.00 0.00 0.00 0.00 0.00 0.00 0.00 0.00 0.00 0.00 0.00 0.00 0.00 0.00 0.00 0.00 0.00 0.00 0.00 0.00 0.00 0.00 0.00 0.00 0.00 0.00 0.00 0.00 0.00 0.00 0.00 0.00 0.00 0.01
0.00 0.00 0.00 0.00 0.00 0.00 0.00 0.00 0.00 0.00 0.00 0.00 0.00 0.00 0.00 0.00 0.00 0.00 0.00 0.00 0.00 0.00 0.00 0.00 0.00 0.00 0.00 0.00 0.00 0.00 0.00 0.00 0.00 0.00 0.00 0.00 0.00 0.00 0.00 0.00 0.00 0.00 0.00
0.00 0.00 0.00 0.00 0.00 0.00 0.00 0.00 0.00 0.00 0.00 0.00 0.00 0.00 0.00 0.00 0.00 0.00 0.00 0.00 0.00 0.00 0.00 0.00 0.00 0.00 0.00 0.00 0.00 0.00 0.00 0.00 0.00 0.00 0.00 0.00 0.00 0.00 0.00 0.00 0.00 0.00 0.00
0.00 0.00 0.00 0.00 0.00 0.00 0.00 0.00 0.00 0.00 0.00 0.00 0.00 0.00 0.00 0.00 0.00 0.00 0.00 0.00 0.00 0.00 0.00 0.00 0.00 0.00 0.00 0.00 0.00 0.00 0.00 0.00 0.00 0.00 0.00 0.00 0.00 0.00 0.00 0.00 0.00 0.00 0.00
0.00 0.00 0.00 0.00 0.00 0.00 0.00 0.00 0.00 0.00 0.00 0.00 0.00 0.00 0.00 0.00 0.00 0.00 0.00 0.00 0.00 0.00 0.00 0.00 0.00 0.00 0.00 0.00 0.00 0.00 0.00 0.00 0.00 0.00 0.00 0.00 0.00 0.00 0.00 0.00 0.00 0.00 0.00
0.00 0.00 0.00 0.00 0.00 0.00 0.00 0.00 0.00 0.00 0.00 0.00 0.00 0.00 0.00 0.00 0.00 0.00 0.00 0.00 0.00 0.00 0.00 0.00 0.00 0.00 0.00 0.00 0.00 0.00 0.00 0.00 0.00 0.00 0.00 0.00 0.00 0.00 0.00 0.00 0.00 0.00 0.00
0.00 0.00 0.00 0.00 0.00 0.00 0.00 0.00 0.00 0.00 0.00 0.00 0.00 0.00 0.00 0.00 0.00 0.00 0.00 0.00 0.00 0.00 0.00 0.00 0.00 0.00 0.00 0.00 0.00 0.00 0.00 0.00 0.00 0.00 0.00 0.00 0.00 0.00 0.00 0.00 0.00 0.00 0.00
0.00 0.00 0.00 0.00 0.00 0.00 0.00 0.00 0.00 0.00 0.00 0.00 0.00 0.00 0.00 0.00 0.00 0.00 0.00 0.00 0.00 0.00 0.00 0.00 0.00 0.00 0.00 0.00 0.00 0.00 0.00 0.00 0.00 0.00 0.00 0.00 0.00 0.00 0.00 0.00 0.00 0.00 0.00
0.00 0.00 0.00 0.00 0.00 0.00 0.00 0.00 0.00 0.00 0.00 0.00 0.00 0.00 0.00 0.00 0.00 0.00 0.00 0.00 0.00 0.00 0.00 0.00 0.00 0.00 0.00 0.00 0.00 0.00 0.00 0.00 0.00 0.00 0.00 0.00 0.00 0.00 0.00 0.00 0.00 0.00 0.00
0.00 0.00 0.00 0.00 0.00 0.00 0.00 0.00 0.00 0.00 0.00 0.00 0.00 0.00 0.00 0.00 0.00 0.00 0.00 0.00 0.00 0.00 0.00 0.00 0.00 0.00 0.00 0.00 0.00 0.00 0.00 0.00 0.00 0.00 0.00 0.00 0.00 0.00 0.00 0.00 0.00 0.00 0.00
0.00 0.00 0.00 0.00 0.00 0.00 0.00 0.00 0.00 0.00 0.00 0.00 0.00 0.00 0.00 0.00 0.00 0.00 0.00 0.00 0.00 0.00 0.00 0.00 0.00 0.00 0.00 0.00 0.00 0.00 0.00 0.00 0.00 0.00 0.00 0.00 0.00 0.00 0.00 0.00 0.00 0.00 0.00
0.00 0.00 0.00 0.00 0.00 0.00 0.00 0.00 0.00 0.00 0.00 0.00 0.00 0.00 0.00 0.00 0.00 0.00 0.00 0.00 0.00 0.00 0.00 0.00 0.00 0.00 0.00 0.00 0.00 0.00 0.00 0.00 0.00 0.00 0.00 0.00 0.00 0.00 0.00 0.00 0.00 0.00 0.00
0.00 0.00 0.00 0.00 0.00 0.00 0.00 0.00 0.00 0.00 0.00 0.00 0.00 0.00 0.00 0.00 0.00 0.00 0.00 0.00 0.00 0.00 0.00 0.00 0.00 0.00 0.00 0.00 0.00 0.00 0.00 0.00 0.00 0.00 0.00 0.00 0.00 0.01 0.01 0.00 0.01 0.01 0.00
0.00 0.00 0.00 0.00 0.00 0.00 0.00 0.00 0.00 0.00 0.00 0.00 0.00 0.00 0.00 0.00 0.00 0.00 0.00 0.00 0.00 0.00 0.00 0.00 0.00 0.00 0.00 0.00 0.00 0.00 0.00 0.00 0.00 0.00 0.00 0.00 0.00 0.00 0.00 0.01 0.01 0.02 0.02
0.00 0.00 0.00 0.00 0.00 0.00 0.00 0.00 0.00 0.00 0.00 0.00 0.00 0.00 0.00 0.00 0.00 0.00 0.00 0.00 0.00 0.00 0.00 0.00 0.00 0.00 0.00 0.00 0.00 0.00 0.00 0.00 0.00 0.00 0.00 0.00 0.00 0.00 0.00 0.00 0.00 0.01 0.02
0.00 0.00 0.00 0.00 0.00 0.00 0.00 0.00 0.00 0.00 0.00 0.00 0.00 0.00 0.00 0.00 0.00 0.00 0.00 0.00 0.00 0.00 0.00 0.00 0.00 0.00 0.00 0.00 0.00 0.00 0.00 0.00 0.00 0.00 0.00 0.00 0.00 0.00 0.00 0.00 0.00 0.00 0.00
0.00 0.00 0.00 0.00 0.00 0.00 0.00 0.00 0.00 0.00 0.00 0.00 0.00 0.00 0.00 0.00 0.00 0.00 0.00 0.00 0.00 0.00 0.00 0.00 0.00 0.00 0.00 0.00 0.00 0.00 0.00 0.00 0.02 0.08 0.00 0.00 0.00 0.00 0.00 0.00 0.00 0.00 0.00
0.00 0.00 0.00 0.00 0.00 0.00 0.00 0.00 0.00 0.00 0.00 0.00 0.00 0.00 0.00 0.00 0.00 0.00 0.00 0.00 0.00 0.00 0.00 0.00 0.00 0.00 0.00 0.00 0.00 0.00 0.00 0.01 0.11 0.04 0.04 0.06 0.02 0.00 0.00 0.00 0.00 0.00 0.00
0.00 0.00 0.00 0.00 0.00 0.00 0.00 0.00 0.00 0.00 0.00 0.00 0.00 0.00 0.00 0.00 0.00 0.00 0.00 0.00 0.00 0.00 0.00 0.00 0.00 0.00 0.00 0.00 0.00 0.00 0.00 0.02 0.01 0.07 0.05 0.09 0.16 0.07 0.02 0.00 0.00 0.00 0.00
0.00 0.00 0.00 0.00 0.00 0.00 0.00 0.00 0.00 0.00 0.00 0.00 0.00 0.00 0.00 0.00 0.00 0.00 0.00 0.00 0.00 0.00 0.00 0.00 0.00 0.00 0.00 0.00 0.00 0.00 0.00 0.06 0.04 0.01 0.03 0.03 0.05 0.04 0.01 0.00 0.00 0.00 0.00
0.00 0.00 0.00 0.00 0.00 0.00 0.00 0.00 0.00 0.00 0.00 0.00 0.00 0.00 0.00 0.00 0.00 0.00 0.00 0.00 0.00 0.00 0.00 0.00 0.00 0.00 0.00 0.00 0.00 0.00 0.00 0.06 0.07 0.01 0.00 0.00 0.01 0.01 0.00 0.00 0.00 0.00 0.00
0.00 0.00 0.00 0.00 0.00 0.00 0.00 0.00 0.00 0.00 0.00 0.00 0.00 0.00 0.00 0.00 0.00 0.00 0.00 0.00 0.00 0.00 0.00 0.00 0.00 0.00 0.00 0.00 0.00 0.00 0.00 0.01 0.02 0.00 0.00 0.00 0.00 0.00 0.00 0.00 0.00 0.00 0.00
0.00 0.00 0.00 0.00 0.00 0.00 0.00 0.00 0.00 0.00 0.00 0.00 0.00 0.00 0.00 0.00 0.00 0.00 0.00 0.00 0.00 0.00 0.00 0.00 0.00 0.00 0.00 0.00 0.00 0.00 0.01 0.05 0.04 0.00 0.00 0.00 0.00 0.00 0.00 0.00 0.00 0.00 0.00
0.00 0.00 0.00 0.00 0.00 0.00 0.00 0.00 0.00 0.00 0.00 0.00 0.00 0.00 0.00 0.00 0.00 0.00 0.00 0.00 0.00 0.00 0.00 0.00 0.00 0.00 0.00 0.00 0.00 0.01 0.04 0.07 0.03 0.01 0.00 0.00 0.00 0.00 0.00 0.00 0.00 0.00 0.00
MSLP
1009.18 1009.41 1009.91 1010.37 1010.58 1011.23 1011.71 1012.08 1012.48 1012.65 1012.77 1012.92 1013.28 1013.74 1014.18 1014.67 1015.10 1015.43 1015.68 1015.79 1015.94 1016.15 1016.43 1016.67 1016.80 1017.04 1017.24 1017.43 1017.60 1017.69 1017.82 1017.94 1017.99 1017.92 1017.95 1017.92 1017.98 1017.95 1017.95 1017.84 1017.78 1017.76 1017.70
1008.28 1009.08 1009.67 1010.26 1010.48 1011.13 1011.62 1012.33 1012.66 1013.00 1013.09 1013.33 1013.65 1014.04 1014.43 1014.83 1015.27 1015.60 1015.82 1016.03 1016.15 1016.41 1016.69 1016.90 1017.10 1017.36 1017.60 1017.89 1017.97 1018.13 1018.22 1018.36 1018.35 1018.37 1018.46 1018.38 1018.37 1018.32 1018.34 1018.21 1018.18 1018.20 1018.18
1008.44 1009.13 1009.76 1010.30 1010.33 1010.87 1011.56 1012.05 1012.57 1012.96 1013.36 1013.75 1014.06 1014.31 1014.62 1014.99 1015.28 1015.59 1015.88 1016.13 1016.40 1016.67 1016.88 1017.16 1017.47 1017.66 1017.99 1018.23 1018.37 1018.47 1018.48 1018.54 1018.58 1018.64 1018.74 1018.87 1018.72 1018.58 1018.54 1018.50 1018.50 1018.43 1018.41
1008.46 1009.15 1009.88 1010.25 1010.28 1010.97 1011.49 1012.04 1012.53 1013.06 1013.55 1013.99 1014.34 1014.58 1014.82 1015.07 1015.41 1015.66 1016.02 1016.34 1016.61 1016.87 1017.12 1017.37 1017.64 1017.98 1018.38 1018.53 1018.63 1018.67 1018.64 1018.68 1018.69 1018.75 1018.99 1019.05 1018.96 1018.90 1018.89 1018.94 1018.89 1018.86 1018.80
1008.79 1009.26 1009.99 1010.38 1010.57 1011.01 1011.60 1012.10 1012.63 1013.23 1013.67 1014.06 1014.41 1014.70 1014.97 1015.19 1015.48 1015.84 1016.22 1016.51 1016.79 1017.04 1017.27 1017.60 1017.95 1018.31 1018.54 1018.76 1018.90 1018.87 1018.84 1018.66 1018.51 1018.90 1019.22 1019.42 1019.43 1019.35 1019.33 1019.39 1019.52 1019.49 1019.35
1008.91 1009.50 1010.07 1010.61 1010.86 1011.20 1011.77 1012.29 1012.76 1013.37 1013.89 1014.30 1014.63 1014.95 1015.21 1015.50 1015.73 1016.06 1016.43 1016.74 1017.00 1017.22 1017.46 1017.76 1018.14 1018.50 1018.71 1018.94 1019.07 1019.05 1018.88 1018.74 1018.83 1019.19 1019.55 1019.76 1019.89 1019.76 1019.75 1019.75 1019.85 1019.89 1019.82
1008.95 1009.53 1010.19 1010.66 1010.99 1011.41 1011.93 1012.41 1012.92 1013.56 1014.03 1014.45 1014.81 1015.13 1015.44 1015.69 1015.96 1016.28 1016.59 1016.86 1017.21 1017.44 1017.71 1018.04 1018.27 1018.57 1018.83 1019.00 1019.17 1019.22 1019.08 1018.95 1019.11 1019.46 1019.76 1020.08 1020.16 1020.04 1020.05 1020.05 1020.07 1020.16 1020.19
1008.61 1009.56 1010.31 1010.81 1011.16 1011.56 1012.06 1012.52 1013.09 1013.67 1014.14 1014.53 1014.99 1015.33 1015.66 1015.96 1016.20 1016.49 1016.75 1017.03 1017.35 1017.58 1017.79 1018.07 1018.29 1018.52 1018.84 1019.16 1019.39 1019.33 1019.19 1019.14 1019.30 1019.65 1019.93 1020.21 1020.33 1020.34 1020.38 1020.38 1020.39 1020.44 1020.49
1009.10 1009.41 1010.31 1010.98 1011.44 1011.80 1012.12 1012.55 1013.11 1013.75 1014.18 1014.53 1015.05 1015.42 1015.84 1016.19 1016.39 1016.66 1016.85 1017.19 1017.50 1017.74 1017.94 1018.20 1018.41 1018.61 1018.82 1019.16 1019.53 1019.38 1019.36 1019.47 1019.59 1019.77 1019.99 1020.28 1020.36 1020.48 1020.55 1020.65 1020.65 1020.64 1020.72
1009.75 1010.01 1010.47 1010.97 1011.53 1012.06 1012.44 1012.70 1013.21 1013.82 1014.28 1014.69 1015.08 1015.52 1015.89 1016.33 1016.64 1016.87 1017.12 1017.28 1017.58 1017.77 1018.03 1018.33 1018.51 1018.74 1018.90 1019.13 1019.53 1019.72 1019.63 1019.62 1019.79 1019.89 1020.00 1020.28 1020.43 1020.55 1020.69 1020.74 1020.79 1020.80 1020.88
1010.23 1010.41 1010.72 1011.02 1011.44 1012.05 1012.54 1013.03 1013.38 1013.92 1014.44 1014.85 1015.26 1015.64 1016.10 1016.46 1016.91 1017.14 1017.32 1017.48 1017.73 1017.92 1018.12 1018.37 1018.64 1018.86 1018.97 1019.07 1019.34 1019.60 1019.67 1019.72 1019.76 1019.77 1019.98 1020.10 1020.38 1020.56 1020.72 1020.79 1020.85 1020.91 1021.05
1009.81 1010.29 1010.58 1011.00 1011.46 1011.97 1012.51 1013.11 1013.67 1014.05 1014.61 1015.03 1015.43 1015.80 1016.20 1016.57 1017.02 1017.35 1017.51 1017.75 1017.90 1018.21 1018.34 1018.53 1018.79 1019.04 1019.17 1019.27 1019.38 1019.51 1019.59 1019.54 1019.60 1019.72 1020.04 1020.26 1020.37 1020.57 1020.71 1020.84 1020.96 1021.07 1021.28
1009.20 1009.99 1010.46 1010.87 1011.17 1011.76 1012.27 1013.00 1013.68 1014.11 1014.55 1015.05 1015.44 1015.88 1016.21 1016.64 1017.04 1017.48 1017.74 1017.93 1018.21 1018.45 1018.78 1018.92 1019.13 1019.24 1019.28 1019.34 1019.30 1019.52 1019.48 1019.55 1019.73 1019.89 1020.05 1020.27 1020.44 1020.57 1020.73 1020.85 1021.02 1021.20 1021.42
1008.67 1009.47 1010.17 1010.75 1011.06 1011.44 1012.03 1012.70 1013.31 1013.88 1014.43 1014.87 1015.29 1015.70 1016.21 1016.62 1017.02 1017.49 1017.72 1017.99 1018.20 1018.45 1018.80 1019.15 1019.20 1019.20 1019.28 1019.33 1019.27 1019.37 1019.50 1019.53 1019.75 1019.90 1020.04 1020.24 1020.52 1020.59 1020.71 1020.86 1021.01 1021.18 1021.33
1008.53 1008.94 1009.67 1010.34 1010.93 1011.18 1011.82 1012.34 1012.99 1013.49 1014.01 1014.54 1015.07 1015.48 1015.87 1016.38 1016.79 1017.20 1017.60 1017.87 1018.11 1018.38 1018.57 1018.93 1019.07 1019.10 1019.17 1019.22 1019.26 1019.24 1019.45 1019.55 1019.66 1019.84 1020.07 1020.24 1020.49 1020.67 1020.65 1020.73 1020.84 1020.96 1021.22
1008.12 1008.63 1009.09 1009.78 1010.46 1010.94 1011.50 1012.06 1012.70 1013.33 1013.75 1014.32 1014.78 1015.17 1015.60 1016.03 1016.43 1016.96 1017.35 1017.70 1017.92 1018.15 1018.44 1018.58 1018.63 1018.91 1019.10 1019.12 1019.16 1019.17 1019.32 1019.56 1019.70 1019.87 1020.02 1020.14 1020.32 1020.47 1020.64 1020.68 1020.67 1020.64 1021.08
1007.01 1008.11 1008.57 1009.03 1009.91 1010.58 1011.13 1011.84 1012.28 1012.95 1013.49 1014.04 1014.54 1014.91 1015.35 1015.80 1016.24 1016.64 1017.12 1017.41 1017.62 1017.85 1018.23 1018.60 1018.69 1018.81 1019.03 1019.10 1019.18 1019.00 1019.03 1019.25 1019.41 1019.61 1019.80 1020.04 1020.21 1020.35 1020.52 1020.60 1020.79 1020.89 1021.13
1006.57 1007.17 1008.09 1008.61 1009.24 1009.89 1010.38 1011.15 1011.88 1012.43 1013.04 1013.56 1014.09 1014.67 1015.04 1015.55 1015.85 1016.28 1016.76 1017.13 1017.28 1017.74 1018.10 1018.37 1018.72 1018.96 1019.07 1019.19 1019.11 1018.83 1018.78 1019.08 1019.16 1019.33 1019.56 1019.76 1020.09 1020.37 1020.51 1020.68 1020.91 1021.23 1021.26
1005.17 1006.27 1007.31 1007.96 1008.57 1009.23 1009.92 1010.52 1011.27 1011.76 1012.46 1013.02 1013.63 1014.18 1014.65 1015.08 1015.56 1015.95 1016.21 1016.53 1017.01 1017.47 1017.93 1018.24 1018.52 1018.79 1019.06 1019.04 1019.01 1018.99 1018.94 1019.00 1019.16 1019.47 1019.69 1019.81 1019.90 1020.18 1020.38 1021.00 1021.39 1021.42 1021.33
1004.63 1005.42 1006.20 1007.00 1007.91 1008.98 1009.76 1010.45 1011.16 1011.64 1012.17 1012.53 1012.95 1013.44 1014.04 1014.51 1015.05 1015.58 1015.94 1016.25 1016.68 1017.34 1017.67 1018.06 1018.34 1018.54 1018.65 1018.71 1018.87 1019.02 1019.05 1019.11 1019.38 1019.69 1019.82 1019.91 1020.04 1020.24 1020.58 1021.34 1021.79 1022.16 1021.97
1004.14 1005.07 1005.80 1006.54 1007.36 1008.52 1009.25 1009.85 1010.56 1010.78 1011.41 1011.94 1012.40 1012.78 1013.35 1013.82 1014.39 1015.02 1015.48 1015.82 1016.15 1016.79 1017.25 1017.65 1017.99 1018.40 1018.68 1018.68 1019.14 1019.31 1019.31 1019.41 1019.77 1019.97 1020.06 1020.10 1020.31 1020.82 1021.14 1021.79 1022.47 1022.75 1023.04
1002.90 1003.66 1004.77 1005.49 1006.34 1006.99 1007.72 1008.33 1009.28 1009.92 1010.63 1011.11 1011.84 1012.24 1012.62 1013.15 1013.71 1014.17 1014.76 1015.26 1015.66 1016.25 1016.76 1017.15 1017.61 1018.09 1018.45 1018.45 1019.01 1019.65 1019.95 1020.16 1020.35 1020.63 1020.72 1020.80 1021.12 1021.40 1022.00 1022.46 1022.93 1023.46 1024.02
1001.93 1002.69 1003.50 1004.19 1005.05 1005.71 1006.55 1007.92 1008.94 1009.82 1010.52 1010.99 1011.12 1011.52 1011.90 1012.39 1012.84 1013.25 1013.78 1014.46 1015.10 1015.53 1015.99 1016.44 1016.94 1017.45 1018.17 1018.51 1018.31 1018.82 1020.05 1020.42 1020.96 1021.72 1021.81 1021.84 1022.17 1022.49 1022.94 1023.34 1023.68 1024.11 1024.71
1000.27 1001.20 1002.19 1003.16 1003.84 1004.86 1005.87 1006.74 1007.47 1007.66 1008.46 1008.69 1009.43 1010.39 1011.01 1011.46 1011.96 1012.42 1012.97 1013.50 1014.25 1014.86 1015.22 1015.45 1016.03 1016.51 1017.16 1017.95 1018.56 1018.49 1018.64 1019.27 1020.62 1022.14 1022.63 1022.76 1022.95 1023.38 1023.76 1024.14 1024.36 1024.85 1025.20
998.89 999.99 1000.95 1002.11 1003.02 1003.81 1004.60 1005.06 1006.10 1006.93 1007.14 1007.96 1008.79 1009.58 1010.14 1010.71 1011.01 1011.56 1012.06 1012.82 1013.39 1014.01 1014.44 1014.82 1015.32 1015.83 1016.20 1017.04 1017.54 1018.53 1018.88 1019.29 1019.67 1020.77 1022.78 1023.50 1023.71 1024.57 1024.73 1024.95 1025.36 1025.56 1025.78
998.04 998.65 999.91 1000.95 1001.86 1002.91 1003.58 1004.18 1004.82 1005.36 1006.36 1007.15 1007.86 1008.61 1009.18 1009.68 1010.17 1010.71 1011.27 1011.87 1012.56 1013.15 1013.66 1014.13 1014.73 1015.19 1015.67 1016.02 1016.67 1017.19 1017.76 1018.64 1019.21 1019.79 1021.68 1023.17 1023.97 1025.34 1025.58 1025.81 1025.96 1026.14 1026.23
Thickness
5790 5790 5784 5778 5775 5770 5765 5760 5755 5754 5752 5751 5747 5742 5739 5736 5733 5730 5727 5726 5725 5723 5721 5719 5717 5714 5711 5708 5707 5706 5703 5701 5700 5700 5699 5698 5696 5696 5695 5696 5696 5695 5695
5799 5792 5787 5780 5776 5769 5765 5758 5754 5751 5751 5748 5744 5740 5737 5734 5730 5728 5726 5724 5723 5721 5719 5717 5715 5712 5708 5705 5704 5702 5700 5698 5698 5697 5695 5695 5694 5694 5694 5695 5694 5693 5692
5795 5790 5786 5779 5778 5772 5765 5760 5754 5751 5748 5744 5742 5740 5736 5733 5731 5728 5726 5724 5721 5719 5718 5715 5712 5710 5706 5703 5702 5700 5698 5698 5698 5697 5696 5694 5695 5695 5694 5694 5693 5693 5692
5794 5788 5783 5779 5779 5772 5767 5761 5755 5750 5746 5742 5739 5737 5735 5732 5730 5727 5724 5722 5720 5718 5716 5713 5711 5708 5704 5701 5700 5700 5699 5698 5698 5698 5695 5693 5694 5694 5693 5692 5691 5690 5689
5789 5785 5780 5777 5776 5772 5766 5761 5755 5749 5745 5742 5739 5736 5734 5732 5730 5727 5724 5721 5719 5716 5714 5711 5708 5705 5703 5701 5699 5699 5699 5700 5701 5697 5693 5692 5692 5691 5690 5690 5687 5686 5686
5786 5781 5778 5774 5772 5769 5764 5759 5754 5748 5744 5741 5739 5736 5733 5731 5729 5726 5723 5720 5717 5715 5712 5710 5708 5705 5703 5701 5699 5699 5700 5700 5700 5696 5692 5690 5689 5688 5688 5687 5686 5685 5685
5783 5779 5776 5772 5770 5766 5762 5758 5753 5747 5743 5740 5737 5734 5732 5730 5727 5725 5722 5719 5716 5713 5711 5709 5708 5705 5703 5701 5700 5699 5700 5700 5698 5695 5693 5690 5688 5687 5687 5687 5686 5685 5684
5783 5777 5772 5769 5767 5764 5760 5756 5751 5746 5742 5739 5736 5733 5730 5727 5725 5723 5721 5718 5715 5713 5712 5710 5708 5706 5704 5701 5699 5700 5701 5700 5698 5695 5693 5690 5687 5686 5686 5685 5685 5684 5682
5778 5776 5769 5765 5762 5760 5758 5754 5750 5744 5741 5739 5735 5732 5729 5725 5723 5721 5720 5717 5715 5713 5711 5709 5707 5706 5704 5701 5698 5700 5700 5698 5697 5695 5692 5690 5687 5686 5685 5684 5683 5683 5681
5768 5768 5766 5762 5759 5755 5753 5751 5747 5742 5739 5737 5735 5732 5728 5724 5721 5719 5717 5717 5714 5713 5711 5708 5706 5705 5703 5702 5699 5697 5699 5698 5696 5695 5693 5690 5688 5686 5684 5683 5682 5682 5680
5760 5761 5760 5760 5757 5753 5750 5746 5744 5740 5736 5734 5732 5730 5727 5723 5719 5717 5716 5715 5713 5712 5710 5708 5706 5704 5703 5702 5701 5698 5698 5698 5696 5696 5693 5691 5687 5685 5683 5682 5681 5680 5678
5759 5757 5758 5757 5755 5751 5747 5744 5740 5737 5733 5731 5729 5728 5725 5722 5718 5715 5714 5712 5711 5709 5707 5706 5705 5703 5702 5701 5700 5699 5698 5698 5697 5695 5692 5689 5687 5684 5683 5681 5680 5678 5675
5761 5756 5755 5755 5753 5750 5747 5742 5738 5734 5731 5729 5727 5725 5724 5721 5717 5714 5712 5710 5709 5707 5705 5703 5702 5702 5701 5700 5700 5699 5697 5696 5695 5694 5691 5688 5685 5683 5682 5681 5678 5676 5673
5762 5758 5754 5752 5752 5749 5746 5742 5737 5732 5729 5727 5726 5725 5722 5720 5717 5714 5712 5710 5708 5707 5704 5701 5701 5701 5701 5700 5699 5699 5697 5695 5694 5692 5690 5687 5684 5683 5681 5679 5677 5674 5672
5758 5758 5754 5751 5749 5749 5745 5741 5736 5733 5730 5727 5725 5725 5723 5720 5717 5714 5712 5710 5708 5707 5705 5702 5701 5700 5699 5699 5698 5698 5695 5694 5693 5690 5687 5685 5683 5680 5679 5677 5676 5674 5670
5758 5756 5756 5752 5749 5749 5745 5741 5736 5731 5729 5726 5725 5725 5723 5720 5718 5715 5712 5709 5708 5707 5705 5703 5702 5700 5698 5697 5697 5697 5695 5692 5690 5688 5687 5684 5682 5679 5677 5676 5675 5674 5668
5764 5756 5755 5753 5750 5747 5744 5739 5735 5731 5728 5725 5723 5723 5722 5719 5717 5715 5712 5710 5708 5707 5704 5701 5700 5699 5697 5695 5695 5695 5694 5691 5690 5689 5687 5682 5679 5678 5676 5674 5671 5668 5663
5763 5761 5755 5753 5751 5748 5746 5741 5736 5732 5728 5726 5723 5721 5720 5718 5717 5715 5711 5709 5709 5705 5702 5701 5699 5696 5694 5693 5693 5694 5693 5690 5689 5687 5684 5681 5677 5674 5674 5671 5667 5662 5660
5771 5763 5757 5755 5752 5748 5745 5742 5738 5734 5730 5726 5724 5721 5720 5718 5716 5713 5712 5710 5708 5705 5701 5700 5698 5695 5692 5691 5690 5689 5688 5688 5685 5682 5679 5676 5674 5673 5671 5667 5663 5660 5657
5770 5766 5761 5757 5753 5746 5741 5738 5735 5732 5730 5727 5725 5724 5721 5719 5716 5713 5710 5708 5706 5702 5700 5697 5695 5694 5692 5690 5689 5686 5686 5684 5681 5677 5675 5673 5671 5668 5666 5662 5657 5652 5650
5767 5762 5760 5755 5752 5746 5740 5736 5733 5734 5731 5729 5726 5724 5722 5721 5718 5714 5710 5707 5706 5702 5699 5696 5694 5691 5688 5688 5682 5681 5681 5678 5674 5672 5669 5668 5666 5659 5658 5654 5648 5645 5639
5772 5769 5762 5760 5754 5752 5750 5746 5738 5735 5732 5730 5726 5723 5722 5721 5719 5716 5713 5709 5706 5702 5697 5695 5692 5688 5685 5685 5678 5672 5667 5666 5665 5663 5661 5660 5657 5655 5649 5644 5640 5634 5628
5773 5772 5769 5767 5762 5757 5754 5744 5735 5730 5727 5725 5728 5727 5725 5721 5720 5719 5715 5710 5705 5704 5700 5697 5693 5689 5682 5681 5682 5674 5657 5655 5653 5649 5648 5647 5644 5642 5638 5633 5630 5624 5617
5779 5780 5775 5770 5768 5759 5752 5746 5742 5742 5738 5740 5736 5730 5726 5723 5720 5719 5716 5711 5707 5703 5702 5701 5696 5691 5686 5678 5674 5674 5672 5665 5649 5637 5637 5636 5635 5630 5625 5620 5617 5611 5607
5782 5779 5778 5771 5766 5762 5756 5754 5747 5742 5746 5739 5734 5729 5726 5723 5721 5718 5716 5712 5709 5704 5701 5699 5695 5691 5688 5680 5676 5667 5664 5659 5656 5645 5626 5624 5622 5613 5611 5608 5605 5601 5597
5775 5778 5776 5771 5767 5761 5758 5756 5751 5749 5743 5739 5735 5730 5728 5725 5723 5720 5717 5714 5710 5706 5701 5697 5693 5690 5687 5684 5678 5674 5667 5658 5653 5646 5630 5622 5614 5601 5598 5597 5595 5592 5587